"Pseudo-MPEC" for P11Osjx

Created 2023 Dec 2 0:22:06 UT using Find_Orb

Click here for an explanation of pseudo-MPECs

 
 Astrometry: 
     P11Osjx* C2023 11 19\-Q\8,0C=cLwhFbZ$:MhjA$Gh-LiN%[1qI2(l*k'3dCmC]@eMCN*F51
     P11Osjx  C2023 11 19+TNYZT;k42Astrometryn!n`+9Y2MwU@tl;`sWredacted;)Ga45F51
     P11Osjx  C2023 11 19H6Cc[XOO3xi7HPdF_+@+FZ$WdKR'.qclick+=RcG[vEKn\sxGs],F51
     P11Osjx  C2023 11 19nh,NFclr[ySCSKOKWlr9iqd7S76TeM:3pF;/b4EaBhnG=?$0kqSbO18
     P11Osjx  C2023 11 195jpMZ$l.?%$e@@O(/NCQ8x41Vx#NQe=u5jV:63;Bx6bhere'qULTO18
     P11Osjx  C2023 11 19T`e1^B9i.Vw!Nk7l$-for4WCQ^;explanationHnW%@eYZ+jrM];O18
     P11Osjx KC2023 11 22.34294 04 18 51.83 +04 32 08.3    ~BMAb 22.3 RVNEOCP291
     P11Osjx KC2023 11 22.35265 04 18 52.90 +04 32 11.1    ~BMAb 22.4 RVNEOCP291

Station data:
(291) LPL/Spacewatch II  (N31.961669 W111.599905)  US/Arizona.  Observers J.
   V. Scotti, R. S. McMillan. 1.8-m f/2.7 reflector + CCD.
(F51) Pan-STARRS 1, Haleakala  (N20.707234 W156.255910)  US/Hawaii.
   Observers J. Bulger, T. Lowe, A. Schultz, M. Willman. Measurers K.
   Chambers, S. Chastel, T. de Boer, L. Denneau, J. Fairlamb, H. Flewelling,
   M. Huber, C.-C. Lin, E. Magnier, Y. Ramanjooloo, R. Wainscoat, R. Weryk.
   1.8-m Ritchey-Chrétien + CCD.
(O18) WFST, Lenghu  (N38.607601 E93.895220).

Orbital elements:  P11Osjx
   Perihelion 2023 Nov 10.52113 +/- 0.33 TT = 12:30:25 (JD 2460259.02113)
Epoch 2023 Nov 22.0 TT = JDT 2460270.5   Earth MOID: 0.1946   Ma: 0.0353
M   3.04146842 +/- 0.15             (J2000 ecliptic)             AutoNEOCP
n   0.26496235 +/- 0.00928          Peri.  237.15650 +/- 0.8
a   2.40074811 +/- 0.0561           Node   171.86861 +/- 0.52
e   0.5088875 +/- 0.00993           Incl.    3.07087 +/- 0.041
P   3.72                   H 24.61  G  0.15   U  9.6
q 1.17903736 +/- 0.00374    Q 3.62245886 +/- 0.108
From 8 observations 2023 Nov. 19-22; mean residual 0".11
Residuals in arcseconds: 
231119 F51  .11-  .06-    231119 O18  .02-  .07-    231122 291  .26-  .01-    
231119 F51  .07+  .05+    231119 O18  .09+  .08-    231122 291  .25+  .03+    
231119 F51  .04+  .04+    231119 O18  .07-  .07-    

Ephemerides (geocentric):
Date (UTC) HH   RA             Dec           delta  r     elong  mag " sig PA
---- --------  ------------   ------------  ------ ------ -----  --- --------
2023 12 02 00  04 36 27.890   +05 39 43.54  .22490 1.2036 163.8 22.5 26.4 106
2023 12 02 01  04 36 31.944   +05 40 05.91  .22500 1.2037 163.8 22.5 26.6 106
2023 12 02 02  04 36 35.994   +05 40 28.33  .22510 1.2038 163.8 22.5 26.8 106
2023 12 02 03  04 36 40.040   +05 40 50.78  .22520 1.2039 163.8 22.5 27.0 106
2023 12 02 04  04 36 44.082   +05 41 13.27  .22530 1.2040 163.8 22.5 27.1 106
2023 12 02 05  04 36 48.120   +05 41 35.79  .22540 1.2041 163.8 22.5 27.3 106
2023 12 02 06  04 36 52.154   +05 41 58.36  .22551 1.2042 163.8 22.5 27.5 106
2023 12 02 07  04 36 56.184   +05 42 20.96  .22561 1.2043 163.8 22.5 27.7 106
2023 12 02 08  04 37 00.210   +05 42 43.60  .22571 1.2044 163.8 22.6 27.9 106
2023 12 02 09  04 37 04.232   +05 43 06.28  .22581 1.2044 163.8 22.6 28.1 106
2023 12 02 10  04 37 08.250   +05 43 29.00  .22591 1.2045 163.8 22.6 28.3 106
2023 12 02 11  04 37 12.264   +05 43 51.75  .22602 1.2046 163.8 22.6 28.4 106
2023 12 02 12  04 37 16.274   +05 44 14.54  .22612 1.2047 163.8 22.6 28.6 106
2023 12 02 13  04 37 20.280   +05 44 37.37  .22622 1.2048 163.8 22.6 28.8 106
2023 12 02 14  04 37 24.282   +05 45 00.23  .22632 1.2049 163.8 22.6 29.0 106
2023 12 02 15  04 37 28.279   +05 45 23.13  .22643 1.2050 163.8 22.6 29.2 106
2023 12 02 16  04 37 32.273   +05 45 46.07  .22653 1.2051 163.8 22.6 29.4 106
2023 12 02 17  04 37 36.263   +05 46 09.05  .22664 1.2052 163.8 22.6 29.6 106
2023 12 02 18  04 37 40.249   +05 46 32.06  .22674 1.2053 163.8 22.6 29.8 106
2023 12 02 19  04 37 44.232   +05 46 55.11  .22684 1.2054 163.8 22.6 29.9 106
2023 12 02 20  04 37 48.210   +05 47 18.20  .22695 1.2055 163.8 22.6 30.1 106
2023 12 02 21  04 37 52.184   +05 47 41.33  .22705 1.2056 163.8 22.6 30.3 106
2023 12 02 22  04 37 56.154   +05 48 04.49  .22716 1.2057 163.8 22.6 30.5 106
2023 12 02 23  04 38 00.120   +05 48 27.68  .22726 1.2058 163.8 22.6 30.7 106
2023 12 03 00  04 38 04.083   +05 48 50.92  .22737 1.2059 163.8 22.6 30.9 106
2023 12 03 01  04 38 08.041   +05 49 14.19  .22747 1.2060 163.8 22.6 31.1 106
2023 12 03 02  04 38 11.996   +05 49 37.50  .22758 1.2061 163.8 22.6 31.3 106
2023 12 03 03  04 38 15.946   +05 50 00.84  .22768 1.2062 163.8 22.6 31.5 106
2023 12 03 04  04 38 19.893   +05 50 24.22  .22779 1.2063 163.8 22.6 31.7 106
2023 12 03 05  04 38 23.836   +05 50 47.64  .22789 1.2064 163.8 22.6 31.9 106
2023 12 03 06  04 38 27.775   +05 51 11.09  .22800 1.2065 163.8 22.6 32.1 106
2023 12 03 07  04 38 31.710   +05 51 34.58  .22811 1.2066 163.8 22.6 32.3 106
2023 12 03 08  04 38 35.641   +05 51 58.10  .22821 1.2067 163.8 22.6 32.4 106
2023 12 03 09  04 38 39.568   +05 52 21.66  .22832 1.2068 163.8 22.6 32.6 106
2023 12 03 10  04 38 43.491   +05 52 45.26  .22843 1.2069 163.8 22.6 32.8 106
2023 12 03 11  04 38 47.411   +05 53 08.89  .22853 1.2070 163.8 22.6 33.0 106
2023 12 03 12  04 38 51.326   +05 53 32.56  .22864 1.2071 163.8 22.6 33.2 106
2023 12 03 13  04 38 55.238   +05 53 56.27  .22875 1.2072 163.8 22.6 33.4 106
2023 12 03 14  04 38 59.146   +05 54 20.01  .22885 1.2073 163.8 22.6 33.6 106
2023 12 03 15  04 39 03.050   +05 54 43.78  .22896 1.2074 163.8 22.6 33.8 106
2023 12 03 16  04 39 06.950   +05 55 07.60  .22907 1.2075 163.8 22.6 34.0 106
2023 12 03 17  04 39 10.846   +05 55 31.44  .22918 1.2076 163.8 22.6 34.2 106
2023 12 03 18  04 39 14.739   +05 55 55.33  .22929 1.2077 163.8 22.6 34.4 106
2023 12 03 19  04 39 18.627   +05 56 19.25  .22939 1.2078 163.8 22.6 34.6 106
2023 12 03 20  04 39 22.512   +05 56 43.20  .22950 1.2079 163.8 22.6 34.8 106
2023 12 03 21  04 39 26.393   +05 57 07.19  .22961 1.2080 163.8 22.6 35.0 106
2023 12 03 22  04 39 30.270   +05 57 31.21  .22972 1.2081 163.8 22.6 35.2 106
2023 12 03 23  04 39 34.144   +05 57 55.27  .22983 1.2082 163.8 22.6 35.4 106